Regional Weather Roundup
Issued by NWS Little Rock, AR

Home | Current Version | Previous Version | Text Only | Print | Product List | Glossary On
Versions: 1 2 3 4 5 6 7 8 9 10 11 12 13 14 15 16 17 18 19 20 21 22 23 24 25 26 27 28 29 30 31 32 33 34 35 36 37 38 39 40 41 42 43 44 45 46 47 48 49 50
000
ASUS44 KLZK 240505
RWRLZK

WEATHER ROUNDUP FOR ARKANSAS
NATIONAL WEATHER SERVICE LITTLE ROCK AR
1100 PM CST THU FEB 23 2017

NOTE: "FAIR" INDICATES FEW OR NO CLOUDS BELOW 12,000 FEET WITH NO
SIGNIFICANT WEATHER AND/OR OBSTRUCTIONS TO VISIBILITY.

ARZ001-003-010-029-240600-
NORTHWEST ARKANSAS

CITY           SKY/WX    TMP DP  RH WIND       PRES   REMARKS
FAYETTEVILLE   CLEAR     68  52  56 S22G30    29.48F
FORT SMITH     CLEAR     66  51  58 N8        29.50F
HARRISON       CLEAR     67  54  63 S21G31    29.50F
BENTONVILLE    CLOUDY    70  48  46 SW13G21   29.50R
ROGERS         CLOUDY    69  51  52 SW13G23   29.51R
SILOAM SPGS    MOCLDY    70  48  46 S23G30    29.47S
HIGHFILL       CLOUDY    70  51  51 S13G30    29.48R
$$

ARZ004-005-016-240600-
NORTH CENTRAL ARKANSAS

CITY           SKY/WX    TMP DP  RH WIND       PRES   REMARKS
BATESVILLE     CLEAR     64  54  68 SE5       29.61R
FLIPPIN        PTCLDY    70  52  52 S8G17     29.51F
MTN HOME       PTCLDY    67  54  63 S16G25    29.53
$$

ARZ040-041-240600-
WEST CENTRAL ARKANSAS

CITY           SKY/WX    TMP DP  RH WIND       PRES   REMARKS
MENA           CLEAR     72  59  64 S3G20     29.59S
MOUNT IDA      CLEAR     70  54  56 CALM      29.58R
$$

ARZ009-017-025-026-028-240600-
NORTHEAST ARKANSAS

CITY           SKY/WX    TMP DP  RH WIND       PRES   REMARKS
CORNING        FAIR      66  57  72 S20G25    29.59F
JONESBORO      CLEAR     65  54  67 S12       29.62S
NEWPORT        CLEAR     62  56  80 S18       29.61R
WALNUT RIDGE   PTCLDY    63  54  72 S17       29.59F
BLYTHEVILLE    CLEAR     63  59  87 S13       29.65S
$$

ARZ022-023-033-042-044-240600-
CENTRAL ARKANSAS

CITY           SKY/WX    TMP DP  RH WIND       PRES   REMARKS
LITTLE ROCK    PTCLDY    64  56  75 S7        29.62S
N LITTLE ROCK    N/A     65  56  74 S8G17     29.62R
JACKSONVILLE   CLEAR     64  58  79 CALM      29.60F
SEARCY         CLEAR     64  58  80 S9        29.62F
HOT SPRINGS    CLEAR     69  56  62 S8        29.62R
RUSSELLVILLE   CLEAR     67  55  65 E6        29.56S
CLINTON        FAIR      55  54  94 CALM      29.60S FOG
$$

ARZ036-240600-
EAST ARKANSAS

CITY           SKY/WX    TMP DP  RH WIND       PRES   REMARKS
WEST MEMPHIS   CLEAR     63  60  90 S15       29.66F
$$

ARZ050-053-066-070-073-240600-
SOUTHWEST ARKANSAS

CITY           SKY/WX    TMP DP  RH WIND       PRES   REMARKS
ARKADELPHIA    FAIR      58  56  93 CALM      29.63R
CAMDEN         CLEAR     66  52  59 S8G16     29.64R
TEXARKANA      PTCLDY    67  54  63 S15G25    29.60R
EL DORADO      CLEAR     65  55  70 S9        29.66S
DE QUEEN       CLEAR     68  57  68 SE3       29.56F
$$

ARZ056-057-069-240600-
SOUTHEAST ARKANSAS

CITY           SKY/WX    TMP DP  RH WIND       PRES   REMARKS
PINE BLUFF     CLEAR     65  56  72 S14       29.64F
STUTTGART      CLEAR     66  52  59 S17       29.64F
MONTICELLO     CLEAR     64  55  72 S7        29.67S

$$





USA.gov is the U.S. government's official web portal to all federal, state and local government web resources and services.